Regional Weather Roundup
Issued by NWS

Home | Current Version | Previous Version | Text Only | Print | Product List | Glossary On
Versions: 1 2 3 4 5 6 7 8 9 10 11 12 13 14 15 16 17 18 19 20 21 22 23 24 25 26 27 28 29 30 31 32 33 34 35 36 37 38 39 40 41 42 43 44 45 46 47 48 49 50
000
ASUS42 KFFC 231703
RWRGA
WEATHER ROUNDUP FOR GEORGIA
NATIONAL WEATHER SERVICE PEACHTREE CITY GA
1200 PM EST SUN NOV 23 2014

NOTE: "FAIR" INDICATES FEW OR NO CLOUDS BELOW 12,000 FEET WITH NO
SIGNIFICANT WEATHER AND/OR OBSTRUCTIONS TO VISIBILITY.

* = USE WITH CAUTION. THE STATIONS MARKED WITH AN ASTERISK MAY NOT
REPORT WEATHER SUCH AS PRECIPITATION, FOG, OR THUNDER AND ARE NOT
QUALITY CONTROLLED BY NWS.

THE REMARK "TC" DENOTES TEMPERATURE READING IN DEGREES CELSIUS.

GAZ001>058-231800-
NORTH GEORGIA

CITY           SKY/WX    TMP DP  RH WIND       PRES   REMARKS
ATLANTA        FOG       52  50  93 E18       29.92F VSB 3/4
ATHENS         LGT RAIN  51  50  96 E5        29.99F FOG
CHAMBLEE       CLOUDY    50  48  93 E6        29.93F FOG
PEACHTREE CITY HVY RAIN  54  53  97 VRB7      29.90F VSB 1
ROME           CLOUDY    53  51  93 SE8       29.88F
WEST ATLANTA   CLOUDY    52  50  93 E8        29.93F FOG
GAINESVILLE    RAIN      47  46  97 E17G26    29.99F FOG
CARTERSVILLE   CLOUDY    52  49  89 E12G24    29.91F


CITY           SKY/WX    TMP DP  RH WIND       PRES   REMARKS
DALTON*        DRIZZLE   55  55 100 S6        29.87F
MARIETTA       LGT RAIN  50  50  99 E10G17    29.92F FOG
KENNESAW*      LGT RAIN  52  46  82 E9G17     29.95F FOG
$$

GAZ059>098-102>109-231800-
CENTRAL GEORGIA

CITY           SKY/WX    TMP DP  RH WIND       PRES   REMARKS
AUGUSTA-BUSH   LGT RAIN  58  57  97 E7        29.99F FOG
AUGUSTA-DANIEL LGT RAIN  58  56  93 E12       29.99F FOG
COLUMBUS       LGT RAIN  61  60  97 SE7       29.85F
MACON          HVY RAIN  60  60 100 SE8       29.90F FOG
ROBINS AFB     LGT RAIN  62  61  97 SE6       29.91F FOG


CITY           SKY/WX    TMP DP  RH WIND       PRES   REMARKS
LAGRANGE*      CLOUDY    62  61  97 SE3       29.85F
SYLVANIA*      LGT RAIN  62  61  97 SE10G16   30.00F
MILLEDGEVILLE* RAIN      59  59 100 CALM      29.94F
$$

GAZ099>101-110>166-231800-
SOUTH GEORGIA

CITY           SKY/WX    TMP DP  RH WIND       PRES   REMARKS
SAVANNAH       LGT RAIN  66  63  90 VRB5      30.00F VSB 1
VALDOSTA       CLOUDY    71  69  93 S12       29.92F
ALMA           CLOUDY    69  68  96 SE6       29.94F FOG
ST SIMONS      CLOUDY    68  68 100 SE5       29.97F
FT STEWART     LGT RAIN  66  65  95 E6        29.96F FOG
ALBANY         CLOUDY    68  67  96 SE8       29.88F
HUNTER AFB     LGT RAIN  64  64 100 E8        29.97F
MOODY AFB      CLOUDY    71  69  95 S10       29.91F
BRUNSWICK      CLOUDY    70  68  94 SE3       29.98F


CITY           SKY/WX    TMP DP  RH WIND       PRES   REMARKS
BAINBRIDGE*    CLOUDY    73  72  94 S14G22    29.84F FOG
MOULTRIE*      CLOUDY    72  72 100 S8        29.90F
VIDALIA*       LGT RAIN  63  63 100 E12       29.96F
WAYCROSS*      RAIN      76  73  92 S9        29.94F
DOUGLAS*       CLOUDY    70  68  94 SE3       29.94F
$$


USA.gov is the U.S. government's official web portal to all federal, state and local government web resources and services.